STARLINK-3004, 48880

Orbit data source: Space-Track

STARLINK-3004, 48880 is a payload satellite owned by SpaceX/Seattle (US) in SSO that was launched on Wed, 30 Jun 2021 UTC via an FALCON 9 launch vehicle from the Air Force Eastern Test Range (AFETR). Payload-class satellites include a variety of spacecraft equipped with specific instruments for various scientific and technological missions. These include communications satellites like Starlink; space stations such as the ISS; scientific satellites like the Hubble; Earth observation satellites from companies like Planet Labs, Umbra, and HawkEye 360; GPS; miniature CubeSats for education and research; and military/defense satellites.

Loading next visibility...
Identifier
48880, 2021-059B
Orbit
SSO
Country
Flag of USUS
Related business
Manufacturer
SpaceX/Seattle
Mission
Operational Commercial Communications
Bus & Motor
STARLINK, Unknown motor
Mass
260 kg wet, ~248 kg dry
Launch date (UTC)
2021-06-30 (4 years ago)
Launch vehicle
FALCON 9
Launch site
Air Force Eastern Test Range (AFETR)
Object type
Payload
Rocket body
Debris
Shape & HBR
Box + 1 Pan, 10.1 m
Radar Cross Section
13.562 m², Large (>1 m²)

Expand to show TLE details & history
Last TLE update: 1 day ago

TLE from 1 day ago
0 STARLINK-3004
1 48880U 21059B   25312.58151236  .00000274  00000-0  25890-4 0  9990
2 48880  97.6595  75.8322 0001850 209.7464 150.3655 15.01269866240638
Epoch: 2025-11-08T13:57Z
TLE epoch observation values (Epoch: 2025-11-08T13:57:22.667Z)
Latitude
-0.00008°
Longitude
178.4787°
Altitude
567.153 km
Speed
7.577 km/s
True Right ascension
05h 03m 19s
True Declination
0° 00' 00"
Sunlit
Object was in full shadow at epoch
Visualization orbit readout
Latitude
Unknown
Longitude
Unknown
Altitude
Unknown
Speed
Unknown
Apparent Right ascension
Unknown
Apparent Declination
Unknown
Sunlit
N/A
Visualization observer readout
Local Sidereal Time
19:09:35
Azimuth
Unknown
Elevation
Unknown
Doppler factor
Unknown
Orbital elements
Apogee altitude
561.265 km
Perigee altitude
558.698 km
Semi-major axis
6,938.118 km
Eccentricity
0.00019
Inclination
97.6595°
RAAN
75.8322°
Arg. of periapsis
209.7464°
True anomaly
150.37598°
Mean anomaly
150.3655°
Eccentric anomaly
150.37074°
Mean motion
3.75561 °/min
Orbital period
95.86 mins
BSTAR
0.00002589
Loading maneuver chart data...
Computing Atmospheric mass density...

Documentation

Showing up to 5 results
|